Location: Unspecified
(43.4354°N, 0.0000°E)
Time: 09:17:23
(UTC+00:00)

Vanguard 2 Rocket - Pass Details

Date: 18 June 2019
Orbit: 554 x 3326 km, 32.9° (Epoch: 18 July)

Event Time Altitude Azimuth Distance (km) Brightness Sun altitude
Rises 20:02:32 0° 185° (S) 3,957 9.8 -3.6°
Reaches altitude 10° 20:06:38 10° 161° (SSE) 3,473 9.4 -4.2°
Maximum altitude 20:11:05 14° 131° (SE) 3,629 9.3 -4.9°
Drops below altitude 10° 20:16:38 10° 103° (ESE) 4,577 9.9 -5.6°
Sets 20:23:44 0° 84° (E) 6,244 10.8 -6.6°
